Location: Alma
(38.7220°N, 88.9090°W)
Time: 20:07:58
(UTC-06:00)

Vanguard 2 Rocket - Pass Details

Date: 20 November 2019
Orbit: 554 x 3326 km, 32.9° (Epoch: 06 December)

Event Time Altitude Azimuth Distance (km) Brightness Sun altitude
Rises 01:57:28 0° 253° (WSW) 2,760 - -55.0°
Reaches altitude 10° 01:59:31 10° 246° (WSW) 1,949 - -54.6°
Maximum altitude 02:03:37 44° 173° (S) 1,005 - -53.9°
Drops below altitude 10° 02:09:35 10° 102° (ESE) 2,839 - -52.8°
Exits shadow 02:10:09 - 101° (E) 3,054 10.0 -52.7°
Sets 02:13:10 0° 97° (E) 4,214 10.8 -52.1°
